Terminal Aerodrome Forecast
Issued by NWS Sterling, VA

Current Version | Previous Version | Graphics & Text | Print | Product List | Glossary On
Versions: 1 2 3 4 5 6 7 8 9 10 11 12 13 14 15 16 17 18 19 20 21
000
FTUS41 KLWX 291728
TAFDCA
TAF
KDCA 291728Z 2918/3018 17011KT P6SM BKN250
     FM301200 VRB03KT P6SM SCT110=

USA.gov is the U.S. government's official web portal to all federal, state and local government web resources and services.